Location: Trebic
(49.2170°N, 15.8830°E)
Time: 08:50:49
(UTC+02:00)

Transit 4A - Pass Details

Date: 01 September 2019
Orbit: 865 x 980 km, 66.8° (Epoch: 16 September)

Event Time Altitude Azimuth Distance (km) Brightness Sun altitude
Rises 23:19:37 0° 322° (NW) 3,656 12.2 -28.9°
Reaches altitude 10° 23:22:39 10° 334° (NNW) 2,691 11.3 -29.1°
Maximum altitude 23:27:54 27° 31° (NNE) 1,724 9.5 -29.5°
Enters shadow 23:30:24 21° 67° (ENE) 1,969 9.5 -29.6°
Drops below altitude 10° 23:33:00 10° 88° (E) 2,616 - -29.8°
Sets 23:35:54 0° 101° (E) 3,535 - -30.0°
